San Juan, PR

5:55 PM AST on June 27, 2017 (GMT -0400)
Luis Munoz Marin International

Weather History for TJSJ - November, 2010

Change the Weather History Date:

Sunday, November 14, 2010

  Actual Average Record
Temperature  
Mean Temperature 80 °F 81 °F  
Max Temperature 83 °F 86 °F 92 °F (1981)
Min Temperature 76 °F 75 °F 68 °F (1961)
Degree Days  
Heating Degree Days 0 0  
Month to date heating degree days 0 0  
Since 1 July heating degree days 0 0  
Cooling Degree Days 15 16  
Month to date cooling degree days 224 227  
Year to date cooling degree days 5385 5186  
Growing Degree Days 30 (Base 50)    
Moisture  
Dew Point 71 °F    
Average Humidity 77    
Maximum Humidity 85    
Minimum Humidity 69    
Precipitation  
Precipitation T in 0.22 in 1.54 in (1948)
Month to date precipitation 6.63 3.14  
Year to date precipitation 80.71 48.12  
Snow  
Snow 0.00 in 0.00 in - ()
Month to date snowfall 0.0 0.0  
Since 1 July snowfall 0.0 0.0  
Since 1 September snowfall 0.0 0.0  
Snow Depth 0.00 in    
Sea Level Pressure  
Sea Level Pressure 29.93 in    
Wind  
Wind Speed 3 mph (NNE)    
Max Wind Speed 14 mph    
Max Gust Speed 17 mph    
Visibility 10 miles    
Events      
T = Trace of Precipitation, MM = Missing Value Source: NWS Daily Summary

Daily Weather History Graph

Daily Weather History Graph

Search for Another Location

Airport or City:

Trip Planner

Search our weather history database for the weather conditions in past years. The results will help you decide how hot, cold, wet, or windy it might be!

Date:

Astronomy

Nov. 14, 2010 Rise Set
Actual Time 6:29 AM AST 5:46 PM AST
Civil Twilight 6:06 AM AST 6:09 PM AST
Nautical Twilight 5:40 AM AST 6:36 PM AST
Astronomical Twilight 5:14 AM AST 7:02 PM AST
Moon 1:12 PM AST (11/14) 12:31 AM AST (11/14)
Length of Visible Light 12h 02m
Length of Day
11h 16m
First Quarter, 59% of the Moon is Illuminated
Nov 14
First Quarter
Nov 21
Full
Nov 28
Last Quarter
Dec 5
New
Dec 13
First Quarter

Hourly Weather History & Observations

Time (AST) Temp. Heat Index Dew Point Humidity Pressure Visibility Wind Dir Wind Speed Gust Speed Precip Events Conditions
12:56 AM 77.0 °F - 70.0 °F 79% 29.94 in 10.0 mi Calm Calm - N/A   Mostly Cloudy
1:56 AM 77.0 °F - 70.0 °F 79% 29.92 in 10.0 mi Calm Calm - N/A   Mostly Cloudy
2:56 AM 78.1 °F - 70.0 °F 76% 29.90 in 10.0 mi Calm Calm - N/A   Mostly Cloudy
3:56 AM 78.1 °F - 70.0 °F 76% 29.90 in 10.0 mi Calm Calm - N/A   Mostly Cloudy
4:56 AM 77.0 °F - 70.0 °F 79% 29.89 in 10.0 mi Calm Calm - N/A   Mostly Cloudy
5:56 AM 77.0 °F - 70.0 °F 79% 29.90 in 10.0 mi Calm Calm - N/A   Overcast
6:56 AM 77.0 °F - 70.0 °F 79% 29.93 in 10.0 mi Calm Calm - N/A   Overcast
7:56 AM 78.1 °F - 70.0 °F 76% 29.94 in 10.0 mi Calm Calm - N/A   Overcast
8:56 AM 82.0 °F 86.3 °F 71.1 °F 69% 29.96 in 10.0 mi Calm Calm - N/A   Mostly Cloudy
9:56 AM 81.0 °F 84.9 °F 71.1 °F 72% 29.96 in 9.0 mi Variable 4.6 mph - N/A   Mostly Cloudy
10:56 AM 81.0 °F 84.9 °F 71.1 °F 72% 29.95 in 9.0 mi North 3.5 mph - N/A   Scattered Clouds
11:56 AM 82.0 °F 86.7 °F 72.0 °F 71% 29.94 in 9.0 mi North 8.1 mph - N/A   Mostly Cloudy
12:56 PM 80.1 °F 83.2 °F 70.0 °F 71% 29.93 in 9.0 mi NE 8.1 mph - N/A   Mostly Cloudy
1:56 PM 80.1 °F 83.8 °F 72.0 °F 76% 29.92 in 9.0 mi East 3.5 mph - 0.00 in   Overcast
2:56 PM 81.0 °F 85.2 °F 72.0 °F 74% 29.90 in 10.0 mi North 9.2 mph - N/A   Mostly Cloudy
3:56 PM 80.1 °F 83.2 °F 70.0 °F 71% 29.90 in 10.0 mi North 4.6 mph - N/A   Mostly Cloudy
4:56 PM 80.1 °F 83.6 °F 71.1 °F 74% 29.90 in 10.0 mi ESE 3.5 mph - N/A   Mostly Cloudy
5:56 PM 79.0 °F - 72.0 °F 79% 29.91 in 10.0 mi SSE 3.5 mph - N/A   Mostly Cloudy
6:56 PM 79.0 °F - 72.0 °F 79% 29.92 in 10.0 mi WSW 4.6 mph - N/A   Overcast
7:56 PM 79.0 °F - 72.0 °F 79% 29.94 in 10.0 mi Calm Calm - N/A   Overcast
8:56 PM 80.1 °F 83.8 °F 72.0 °F 76% 29.96 in 10.0 mi Calm Calm - N/A   Overcast
9:56 PM 79.0 °F - 73.0 °F 82% 29.96 in 10.0 mi Calm Calm - N/A   Overcast
10:56 PM 78.1 °F - 73.0 °F 84% 29.96 in 10.0 mi WNW 3.5 mph - 0.00 in   Scattered Clouds
11:56 PM 78.1 °F - 72.0 °F 81% 29.95 in 10.0 mi WSW 3.5 mph - 0.00 in   Scattered Clouds